Location: Bergnershof
(48.9468°N, 10.9431°E)
Time: 00:07:09
(UTC+00:00)

Meteor 2-20 Rocket - Pass Details

Date: 03 March 2021
Orbit: 941 x 958 km, 82.5° (Epoch: 13 April)

Event Time Altitude Azimuth Distance (km) Brightness Sun altitude
Rises 19:40:16 0° 350° (N) 3,622 7.9 -26.2°
Reaches altitude 10° 19:42:47 10° 352° (N) 2,675 7.1 -26.6°
Maximum altitude 19:48:54 78° 80° (E) 972 4.3 -27.5°
Enters shadow 19:49:11 76° 111° (ESE) 978 4.2 -27.5°
